Index of /20260420/WXO-DD/model_gdps/15km/12/129
Name Last modified Size Description
Parent Directory -
20260420T12Z_MSC_GDPS_AbsoluteVorticity_IsbL-0200_LatLon0.15_PT129H.grib2 2026-04-20 16:31 1.2M
20260420T12Z_MSC_GDPS_AbsoluteVorticity_IsbL-0250_LatLon0.15_PT129H.grib2 2026-04-20 16:31 1.3M
20260420T12Z_MSC_GDPS_AbsoluteVorticity_IsbL-0500_LatLon0.15_PT129H.grib2 2026-04-20 16:31 1.5M
20260420T12Z_MSC_GDPS_AbsoluteVorticity_IsbL-0700_LatLon0.15_PT129H.grib2 2026-04-20 16:31 1.6M
20260420T12Z_MSC_GDPS_AbsoluteVorticity_IsbL-0850_LatLon0.15_PT129H.grib2 2026-04-20 16:31 1.6M
20260420T12Z_MSC_GDPS_AirTemp_AGL-120m_LatLon0.15_PT129H.grib2 2026-04-20 16:31 919K
20260420T12Z_MSC_GDPS_AirTemp_AGL-2m_LatLon0.15_PT129H.grib2 2026-04-20 16:31 1.0M
20260420T12Z_MSC_GDPS_AirTemp_AGL-40m_LatLon0.15_PT129H.grib2 2026-04-20 16:31 827K
20260420T12Z_MSC_GDPS_AirTemp_AGL-80m_LatLon0.15_PT129H.grib2 2026-04-20 16:31 930K
20260420T12Z_MSC_GDPS_AirTemp_IsbL-0001_LatLon0.15_PT129H.grib2 2026-04-20 16:31 706K
20260420T12Z_MSC_GDPS_AirTemp_IsbL-0005_LatLon0.15_PT129H.grib2 2026-04-20 16:31 686K
20260420T12Z_MSC_GDPS_AirTemp_IsbL-0010_LatLon0.15_PT129H.grib2 2026-04-20 16:31 756K
20260420T12Z_MSC_GDPS_AirTemp_IsbL-0020_LatLon0.15_PT129H.grib2 2026-04-20 16:31 697K
20260420T12Z_MSC_GDPS_AirTemp_IsbL-0030_LatLon0.15_PT129H.grib2 2026-04-20 16:31 750K
20260420T12Z_MSC_GDPS_AirTemp_IsbL-0050_LatLon0.15_PT129H.grib2 2026-04-20 16:31 805K
20260420T12Z_MSC_GDPS_AirTemp_IsbL-0100_LatLon0.15_PT129H.grib2 2026-04-20 16:31 946K
20260420T12Z_MSC_GDPS_AirTemp_IsbL-0150_LatLon0.15_PT129H.grib2 2026-04-20 16:31 960K
20260420T12Z_MSC_GDPS_AirTemp_IsbL-0175_LatLon0.15_PT129H.grib2 2026-04-20 16:31 952K
20260420T12Z_MSC_GDPS_AirTemp_IsbL-0200_LatLon0.15_PT129H.grib2 2026-04-20 16:31 967K
20260420T12Z_MSC_GDPS_AirTemp_IsbL-0225_LatLon0.15_PT129H.grib2 2026-04-20 16:31 970K
20260420T12Z_MSC_GDPS_AirTemp_IsbL-0250_LatLon0.15_PT129H.grib2 2026-04-20 16:31 1.0M
20260420T12Z_MSC_GDPS_AirTemp_IsbL-0275_LatLon0.15_PT129H.grib2 2026-04-20 16:31 1.0M
20260420T12Z_MSC_GDPS_AirTemp_IsbL-0300_LatLon0.15_PT129H.grib2 2026-04-20 16:31 1.0M
20260420T12Z_MSC_GDPS_AirTemp_IsbL-0350_LatLon0.15_PT129H.grib2 2026-04-20 16:31 930K
20260420T12Z_MSC_GDPS_AirTemp_IsbL-0400_LatLon0.15_PT129H.grib2 2026-04-20 16:31 942K
20260420T12Z_MSC_GDPS_AirTemp_IsbL-0450_LatLon0.15_PT129H.grib2 2026-04-20 16:31 962K
20260420T12Z_MSC_GDPS_AirTemp_IsbL-0500_LatLon0.15_PT129H.grib2 2026-04-20 16:31 1.0M
20260420T12Z_MSC_GDPS_AirTemp_IsbL-0550_LatLon0.15_PT129H.grib2 2026-04-20 16:31 805K
20260420T12Z_MSC_GDPS_AirTemp_IsbL-0600_LatLon0.15_PT129H.grib2 2026-04-20 16:31 892K
20260420T12Z_MSC_GDPS_AirTemp_IsbL-0650_LatLon0.15_PT129H.grib2 2026-04-20 16:31 920K
20260420T12Z_MSC_GDPS_AirTemp_IsbL-0700_LatLon0.15_PT129H.grib2 2026-04-20 16:31 953K
20260420T12Z_MSC_GDPS_AirTemp_IsbL-0750_LatLon0.15_PT129H.grib2 2026-04-20 16:31 1.0M
20260420T12Z_MSC_GDPS_AirTemp_IsbL-0800_LatLon0.15_PT129H.grib2 2026-04-20 16:31 1.1M
20260420T12Z_MSC_GDPS_AirTemp_IsbL-0850_LatLon0.15_PT129H.grib2 2026-04-20 16:31 1.1M
20260420T12Z_MSC_GDPS_AirTemp_IsbL-0875_LatLon0.15_PT129H.grib2 2026-04-20 16:31 1.2M
20260420T12Z_MSC_GDPS_AirTemp_IsbL-0900_LatLon0.15_PT129H.grib2 2026-04-20 16:31 1.2M
20260420T12Z_MSC_GDPS_AirTemp_IsbL-0925_LatLon0.15_PT129H.grib2 2026-04-20 16:31 1.1M
20260420T12Z_MSC_GDPS_AirTemp_IsbL-0950_LatLon0.15_PT129H.grib2 2026-04-20 16:31 1.2M
20260420T12Z_MSC_GDPS_AirTemp_IsbL-0970_LatLon0.15_PT129H.grib2 2026-04-20 16:31 1.2M
20260420T12Z_MSC_GDPS_AirTemp_IsbL-0985_LatLon0.15_PT129H.grib2 2026-04-20 16:31 1.2M
20260420T12Z_MSC_GDPS_AirTemp_IsbL-1000_LatLon0.15_PT129H.grib2 2026-04-20 16:31 1.1M
20260420T12Z_MSC_GDPS_AirTemp_IsbL-1015_LatLon0.15_PT129H.grib2 2026-04-20 16:31 1.1M
20260420T12Z_MSC_GDPS_Albedo_Sfc_LatLon0.15_PT129H.grib2 2026-04-20 16:31 248K
20260420T12Z_MSC_GDPS_CAPE_Sfc_LatLon0.15_PT129H.grib2 2026-04-20 16:31 3.9M
20260420T12Z_MSC_GDPS_CIN_Sfc_LatLon0.15_PT129H.grib2 2026-04-20 16:31 2.9M
20260420T12Z_MSC_GDPS_CloudWater_EAtm_LatLon0.15_PT129H.grib2 2026-04-20 16:31 540K
20260420T12Z_MSC_GDPS_ConvectivePrecip-Accum_Sfc_LatLon0.15_PT129H.grib2 2026-04-20 16:31 3.5M
20260420T12Z_MSC_GDPS_DewPointDepression_AGL-2m_LatLon0.15_PT129H.grib2 2026-04-20 16:31 758K
20260420T12Z_MSC_GDPS_DewPointDepression_IsbL-0010_LatLon0.15_PT129H.grib2 2026-04-20 16:31 41K
20260420T12Z_MSC_GDPS_DewPointDepression_IsbL-0020_LatLon0.15_PT129H.grib2 2026-04-20 16:31 68K
20260420T12Z_MSC_GDPS_DewPointDepression_IsbL-0030_LatLon0.15_PT129H.grib2 2026-04-20 16:31 77K
20260420T12Z_MSC_GDPS_DewPointDepression_IsbL-0050_LatLon0.15_PT129H.grib2 2026-04-20 16:31 361K
20260420T12Z_MSC_GDPS_DewPointDepression_IsbL-0100_LatLon0.15_PT129H.grib2 2026-04-20 16:31 384K
20260420T12Z_MSC_GDPS_DewPointDepression_IsbL-0150_LatLon0.15_PT129H.grib2 2026-04-20 16:31 463K
20260420T12Z_MSC_GDPS_DewPointDepression_IsbL-0175_LatLon0.15_PT129H.grib2 2026-04-20 16:31 562K
20260420T12Z_MSC_GDPS_DewPointDepression_IsbL-0200_LatLon0.15_PT129H.grib2 2026-04-20 16:31 663K
20260420T12Z_MSC_GDPS_DewPointDepression_IsbL-0225_LatLon0.15_PT129H.grib2 2026-04-20 16:31 770K
20260420T12Z_MSC_GDPS_DewPointDepression_IsbL-0250_LatLon0.15_PT129H.grib2 2026-04-20 16:31 864K
20260420T12Z_MSC_GDPS_DewPointDepression_IsbL-0275_LatLon0.15_PT129H.grib2 2026-04-20 16:31 890K
20260420T12Z_MSC_GDPS_DewPointDepression_IsbL-0300_LatLon0.15_PT129H.grib2 2026-04-20 16:31 935K
20260420T12Z_MSC_GDPS_DewPointDepression_IsbL-0350_LatLon0.15_PT129H.grib2 2026-04-20 16:31 968K
20260420T12Z_MSC_GDPS_DewPointDepression_IsbL-0400_LatLon0.15_PT129H.grib2 2026-04-20 16:31 1.0M
20260420T12Z_MSC_GDPS_DewPointDepression_IsbL-0450_LatLon0.15_PT129H.grib2 2026-04-20 16:31 1.0M
20260420T12Z_MSC_GDPS_DewPointDepression_IsbL-0500_LatLon0.15_PT129H.grib2 2026-04-20 16:31 1.0M
20260420T12Z_MSC_GDPS_DewPointDepression_IsbL-0550_LatLon0.15_PT129H.grib2 2026-04-20 16:31 1.0M
20260420T12Z_MSC_GDPS_DewPointDepression_IsbL-0600_LatLon0.15_PT129H.grib2 2026-04-20 16:31 1.1M
20260420T12Z_MSC_GDPS_DewPointDepression_IsbL-0650_LatLon0.15_PT129H.grib2 2026-04-20 16:31 1.1M
20260420T12Z_MSC_GDPS_DewPointDepression_IsbL-0700_LatLon0.15_PT129H.grib2 2026-04-20 16:31 1.1M
20260420T12Z_MSC_GDPS_DewPointDepression_IsbL-0750_LatLon0.15_PT129H.grib2 2026-04-20 16:31 1.1M
20260420T12Z_MSC_GDPS_DewPointDepression_IsbL-0800_LatLon0.15_PT129H.grib2 2026-04-20 16:31 1.2M
20260420T12Z_MSC_GDPS_DewPointDepression_IsbL-0850_LatLon0.15_PT129H.grib2 2026-04-20 16:31 1.2M
20260420T12Z_MSC_GDPS_DewPointDepression_IsbL-0875_LatLon0.15_PT129H.grib2 2026-04-20 16:31 1.1M
20260420T12Z_MSC_GDPS_DewPointDepression_IsbL-0900_LatLon0.15_PT129H.grib2 2026-04-20 16:31 1.1M
20260420T12Z_MSC_GDPS_DewPointDepression_IsbL-0925_LatLon0.15_PT129H.grib2 2026-04-20 16:31 1.0M
20260420T12Z_MSC_GDPS_DewPointDepression_IsbL-0950_LatLon0.15_PT129H.grib2 2026-04-20 16:31 1.0M
20260420T12Z_MSC_GDPS_DewPointDepression_IsbL-0970_LatLon0.15_PT129H.grib2 2026-04-20 16:31 1.0M
20260420T12Z_MSC_GDPS_DewPointDepression_IsbL-0985_LatLon0.15_PT129H.grib2 2026-04-20 16:31 1.0M
20260420T12Z_MSC_GDPS_DewPointDepression_IsbL-1000_LatLon0.15_PT129H.grib2 2026-04-20 16:31 1.0M
20260420T12Z_MSC_GDPS_DewPointDepression_IsbL-1015_LatLon0.15_PT129H.grib2 2026-04-20 16:31 925K
20260420T12Z_MSC_GDPS_DewPoint_AGL-2m_LatLon0.15_PT129H.grib2 2026-04-20 16:31 612K
20260420T12Z_MSC_GDPS_DownwardLongwaveRadiationFlux-Accum_Sfc_LatLon0.15_PT129H.grib2 2026-04-20 16:31 816K
20260420T12Z_MSC_GDPS_DownwardShortwaveRadiationFlux-Accum_NTAtm_LatLon0.15_PT129H.grib2 2026-04-20 16:31 201K
20260420T12Z_MSC_GDPS_DownwardShortwaveRadiationFlux-Accum_Sfc_LatLon0.15_PT129H.grib2 2026-04-20 16:31 1.0M
20260420T12Z_MSC_GDPS_FreezingRain-Accum1h_Sfc_LatLon0.15_PT129H.grib2 2026-04-20 16:31 62K
20260420T12Z_MSC_GDPS_FreezingRain-Accum3h_Sfc_LatLon0.15_PT129H.grib2 2026-04-20 16:31 65K
20260420T12Z_MSC_GDPS_FreezingRain-Accum_Sfc_LatLon0.15_PT129H.grib2 2026-04-20 16:31 349K
20260420T12Z_MSC_GDPS_GeopotentialHeight_IsbL-0001_LatLon0.15_PT129H.grib2 2026-04-20 16:31 394K
20260420T12Z_MSC_GDPS_GeopotentialHeight_IsbL-0005_LatLon0.15_PT129H.grib2 2026-04-20 16:31 500K
20260420T12Z_MSC_GDPS_GeopotentialHeight_IsbL-0010_LatLon0.15_PT129H.grib2 2026-04-20 16:31 484K
20260420T12Z_MSC_GDPS_GeopotentialHeight_IsbL-0020_LatLon0.15_PT129H.grib2 2026-04-20 16:31 571K
20260420T12Z_MSC_GDPS_GeopotentialHeight_IsbL-0030_LatLon0.15_PT129H.grib2 2026-04-20 16:31 574K
20260420T12Z_MSC_GDPS_GeopotentialHeight_IsbL-0050_LatLon0.15_PT129H.grib2 2026-04-20 16:31 574K
20260420T12Z_MSC_GDPS_GeopotentialHeight_IsbL-0100_LatLon0.15_PT129H.grib2 2026-04-20 16:31 608K
20260420T12Z_MSC_GDPS_GeopotentialHeight_IsbL-0150_LatLon0.15_PT129H.grib2 2026-04-20 16:31 626K
20260420T12Z_MSC_GDPS_GeopotentialHeight_IsbL-0175_LatLon0.15_PT129H.grib2 2026-04-20 16:31 631K
20260420T12Z_MSC_GDPS_GeopotentialHeight_IsbL-0200_LatLon0.15_PT129H.grib2 2026-04-20 16:31 634K
20260420T12Z_MSC_GDPS_GeopotentialHeight_IsbL-0225_LatLon0.15_PT129H.grib2 2026-04-20 16:31 630K
20260420T12Z_MSC_GDPS_GeopotentialHeight_IsbL-0250_LatLon0.15_PT129H.grib2 2026-04-20 16:31 639K
20260420T12Z_MSC_GDPS_GeopotentialHeight_IsbL-0275_LatLon0.15_PT129H.grib2 2026-04-20 16:31 637K
20260420T12Z_MSC_GDPS_GeopotentialHeight_IsbL-0300_LatLon0.15_PT129H.grib2 2026-04-20 16:31 631K
20260420T12Z_MSC_GDPS_GeopotentialHeight_IsbL-0350_LatLon0.15_PT129H.grib2 2026-04-20 16:31 626K
20260420T12Z_MSC_GDPS_GeopotentialHeight_IsbL-0400_LatLon0.15_PT129H.grib2 2026-04-20 16:31 620K
20260420T12Z_MSC_GDPS_GeopotentialHeight_IsbL-0450_LatLon0.15_PT129H.grib2 2026-04-20 16:31 540K
20260420T12Z_MSC_GDPS_GeopotentialHeight_IsbL-0500_LatLon0.15_PT129H.grib2 2026-04-20 16:31 528K
20260420T12Z_MSC_GDPS_GeopotentialHeight_IsbL-0550_LatLon0.15_PT129H.grib2 2026-04-20 16:31 521K
20260420T12Z_MSC_GDPS_GeopotentialHeight_IsbL-0600_LatLon0.15_PT129H.grib2 2026-04-20 16:31 682K
20260420T12Z_MSC_GDPS_GeopotentialHeight_IsbL-0650_LatLon0.15_PT129H.grib2 2026-04-20 16:31 679K
20260420T12Z_MSC_GDPS_GeopotentialHeight_IsbL-0700_LatLon0.15_PT129H.grib2 2026-04-20 16:31 680K
20260420T12Z_MSC_GDPS_GeopotentialHeight_IsbL-0750_LatLon0.15_PT129H.grib2 2026-04-20 16:31 681K
20260420T12Z_MSC_GDPS_GeopotentialHeight_IsbL-0800_LatLon0.15_PT129H.grib2 2026-04-20 16:31 696K
20260420T12Z_MSC_GDPS_GeopotentialHeight_IsbL-0850_LatLon0.15_PT129H.grib2 2026-04-20 16:31 703K
20260420T12Z_MSC_GDPS_GeopotentialHeight_IsbL-0875_LatLon0.15_PT129H.grib2 2026-04-20 16:31 709K
20260420T12Z_MSC_GDPS_GeopotentialHeight_IsbL-0900_LatLon0.15_PT129H.grib2 2026-04-20 16:31 716K
20260420T12Z_MSC_GDPS_GeopotentialHeight_IsbL-0925_LatLon0.15_PT129H.grib2 2026-04-20 16:31 726K
20260420T12Z_MSC_GDPS_GeopotentialHeight_IsbL-0950_LatLon0.15_PT129H.grib2 2026-04-20 16:31 732K
20260420T12Z_MSC_GDPS_GeopotentialHeight_IsbL-0970_LatLon0.15_PT129H.grib2 2026-04-20 16:31 746K
20260420T12Z_MSC_GDPS_GeopotentialHeight_IsbL-0985_LatLon0.15_PT129H.grib2 2026-04-20 16:31 762K
20260420T12Z_MSC_GDPS_GeopotentialHeight_IsbL-1000_LatLon0.15_PT129H.grib2 2026-04-20 16:31 784K
20260420T12Z_MSC_GDPS_GeopotentialHeight_IsbL-1015_LatLon0.15_PT129H.grib2 2026-04-20 16:31 803K
20260420T12Z_MSC_GDPS_Humidex_Sfc_LatLon0.15_PT129H.grib2 2026-04-20 16:31 5.3M
20260420T12Z_MSC_GDPS_IcePellets-Accum1h_Sfc_LatLon0.15_PT129H.grib2 2026-04-20 16:31 21K
20260420T12Z_MSC_GDPS_IcePellets-Accum3h_Sfc_LatLon0.15_PT129H.grib2 2026-04-20 16:31 23K
20260420T12Z_MSC_GDPS_IcePellets-Accum_Sfc_LatLon0.15_PT129H.grib2 2026-04-20 16:31 134K
20260420T12Z_MSC_GDPS_KIndex_Sfc_LatLon0.15_PT129H.grib2 2026-04-20 16:31 6.5M
20260420T12Z_MSC_GDPS_LatentHeatNetFlux_Sfc_LatLon0.15_PT129H.grib2 2026-04-20 16:31 497K
20260420T12Z_MSC_GDPS_LiftedIndex-MU-VT_IsbL-0500_LatLon0.15_PT129H.grib2 2026-04-20 16:31 5.4M
20260420T12Z_MSC_GDPS_NetLongwaveRadiationFlux-Accum_Sfc_LatLon0.15_PT129H.grib2 2026-04-20 16:31 1.0M
20260420T12Z_MSC_GDPS_NetShortwaveRadiationFlux-Accum_Sfc_LatLon0.15_PT129H.grib2 2026-04-20 16:31 1.0M
20260420T12Z_MSC_GDPS_O3MixingRatio_LatLon0.15_PT129H.grib2 2026-04-20 17:06 2.3M
20260420T12Z_MSC_GDPS_O3_EAtm_LatLon0.15_PT129H.grib2 2026-04-20 17:06 2.5M
20260420T12Z_MSC_GDPS_PlanetaryBoundaryLayerHeight_Sfc_LatLon0.15_PT129H.grib2 2026-04-20 16:31 2.4M
20260420T12Z_MSC_GDPS_Precip-Accum1h_Sfc_LatLon0.15_PT129H.grib2 2026-04-20 16:31 3.3M
20260420T12Z_MSC_GDPS_Precip-Accum3h_Sfc_LatLon0.15_PT129H.grib2 2026-04-20 16:31 3.6M
20260420T12Z_MSC_GDPS_Precip-Accum_Sfc_LatLon0.15_PT129H.grib2 2026-04-20 16:31 5.2M
20260420T12Z_MSC_GDPS_PrecipRate_Sfc_LatLon0.15_PT129H.grib2 2026-04-20 16:31 3.0M
20260420T12Z_MSC_GDPS_PrecipType-Instant_Sfc_LatLon0.15_PT129H.grib2 2026-04-20 16:31 1.6M
20260420T12Z_MSC_GDPS_Pressure_MSL_LatLon0.15_PT129H.grib2 2026-04-20 16:31 722K
20260420T12Z_MSC_GDPS_Pressure_PVU-1.5_LatLon0.15_PT129H.grib2 2026-04-20 16:31 5.8M
20260420T12Z_MSC_GDPS_Pressure_PVU-1_LatLon0.15_PT129H.grib2 2026-04-20 16:31 6.0M
20260420T12Z_MSC_GDPS_Pressure_PVU-2_LatLon0.15_PT129H.grib2 2026-04-20 16:31 5.6M
20260420T12Z_MSC_GDPS_Pressure_Sfc_LatLon0.15_PT129H.grib2 2026-04-20 16:31 1.1M
20260420T12Z_MSC_GDPS_RadiativeTemp_Sfc_LatLon0.15_PT129H.grib2 2026-04-20 16:31 662K
20260420T12Z_MSC_GDPS_Rain-Accum1h_Sfc_LatLon0.15_PT129H.grib2 2026-04-20 16:31 1.7M
20260420T12Z_MSC_GDPS_Rain-Accum3h_Sfc_LatLon0.15_PT129H.grib2 2026-04-20 16:31 1.7M
20260420T12Z_MSC_GDPS_Rain-Accum_Sfc_LatLon0.15_PT129H.grib2 2026-04-20 16:31 4.0M
20260420T12Z_MSC_GDPS_RelativeHumidity_AGL-2m_LatLon0.15_PT129H.grib2 2026-04-20 16:31 1.0M
20260420T12Z_MSC_GDPS_RelativeHumidity_IsbL-0010_LatLon0.15_PT129H.grib2 2026-04-20 16:31 247K
20260420T12Z_MSC_GDPS_RelativeHumidity_IsbL-0020_LatLon0.15_PT129H.grib2 2026-04-20 16:31 239K
20260420T12Z_MSC_GDPS_RelativeHumidity_IsbL-0030_LatLon0.15_PT129H.grib2 2026-04-20 16:31 339K
20260420T12Z_MSC_GDPS_RelativeHumidity_IsbL-0050_LatLon0.15_PT129H.grib2 2026-04-20 16:31 328K
20260420T12Z_MSC_GDPS_RelativeHumidity_IsbL-0100_LatLon0.15_PT129H.grib2 2026-04-20 16:31 489K
20260420T12Z_MSC_GDPS_RelativeHumidity_IsbL-0150_LatLon0.15_PT129H.grib2 2026-04-20 16:31 651K
20260420T12Z_MSC_GDPS_RelativeHumidity_IsbL-0175_LatLon0.15_PT129H.grib2 2026-04-20 16:31 779K
20260420T12Z_MSC_GDPS_RelativeHumidity_IsbL-0200_LatLon0.15_PT129H.grib2 2026-04-20 16:31 701K
20260420T12Z_MSC_GDPS_RelativeHumidity_IsbL-0225_LatLon0.15_PT129H.grib2 2026-04-20 16:31 787K
20260420T12Z_MSC_GDPS_RelativeHumidity_IsbL-0250_LatLon0.15_PT129H.grib2 2026-04-20 16:31 872K
20260420T12Z_MSC_GDPS_RelativeHumidity_IsbL-0275_LatLon0.15_PT129H.grib2 2026-04-20 16:31 900K
20260420T12Z_MSC_GDPS_RelativeHumidity_IsbL-0300_LatLon0.15_PT129H.grib2 2026-04-20 16:31 947K
20260420T12Z_MSC_GDPS_RelativeHumidity_IsbL-0350_LatLon0.15_PT129H.grib2 2026-04-20 16:31 969K
20260420T12Z_MSC_GDPS_RelativeHumidity_IsbL-0400_LatLon0.15_PT129H.grib2 2026-04-20 16:31 1.0M
20260420T12Z_MSC_GDPS_RelativeHumidity_IsbL-0450_LatLon0.15_PT129H.grib2 2026-04-20 16:31 1.0M
20260420T12Z_MSC_GDPS_RelativeHumidity_IsbL-0500_LatLon0.15_PT129H.grib2 2026-04-20 16:31 1.0M
20260420T12Z_MSC_GDPS_RelativeHumidity_IsbL-0550_LatLon0.15_PT129H.grib2 2026-04-20 16:31 1.0M
20260420T12Z_MSC_GDPS_RelativeHumidity_IsbL-0600_LatLon0.15_PT129H.grib2 2026-04-20 16:31 1.1M
20260420T12Z_MSC_GDPS_RelativeHumidity_IsbL-0650_LatLon0.15_PT129H.grib2 2026-04-20 16:31 1.1M
20260420T12Z_MSC_GDPS_RelativeHumidity_IsbL-0700_LatLon0.15_PT129H.grib2 2026-04-20 16:31 1.2M
20260420T12Z_MSC_GDPS_RelativeHumidity_IsbL-0750_LatLon0.15_PT129H.grib2 2026-04-20 16:31 1.2M
20260420T12Z_MSC_GDPS_RelativeHumidity_IsbL-0800_LatLon0.15_PT129H.grib2 2026-04-20 16:31 1.2M
20260420T12Z_MSC_GDPS_RelativeHumidity_IsbL-0850_LatLon0.15_PT129H.grib2 2026-04-20 16:31 1.3M
20260420T12Z_MSC_GDPS_RelativeHumidity_IsbL-0875_LatLon0.15_PT129H.grib2 2026-04-20 16:31 1.3M
20260420T12Z_MSC_GDPS_RelativeHumidity_IsbL-0900_LatLon0.15_PT129H.grib2 2026-04-20 16:31 1.2M
20260420T12Z_MSC_GDPS_RelativeHumidity_IsbL-0925_LatLon0.15_PT129H.grib2 2026-04-20 16:31 1.2M
20260420T12Z_MSC_GDPS_RelativeHumidity_IsbL-0950_LatLon0.15_PT129H.grib2 2026-04-20 16:31 1.2M
20260420T12Z_MSC_GDPS_RelativeHumidity_IsbL-0970_LatLon0.15_PT129H.grib2 2026-04-20 16:31 1.2M
20260420T12Z_MSC_GDPS_RelativeHumidity_IsbL-0985_LatLon0.15_PT129H.grib2 2026-04-20 16:31 1.2M
20260420T12Z_MSC_GDPS_RelativeHumidity_IsbL-1000_LatLon0.15_PT129H.grib2 2026-04-20 16:31 1.2M
20260420T12Z_MSC_GDPS_RelativeHumidity_IsbL-1015_LatLon0.15_PT129H.grib2 2026-04-20 16:31 1.1M
20260420T12Z_MSC_GDPS_RelativeVorticity_IsbL-0200_LatLon0.15_PT129H.grib2 2026-04-20 16:31 1.5M
20260420T12Z_MSC_GDPS_RelativeVorticity_IsbL-0250_LatLon0.15_PT129H.grib2 2026-04-20 16:31 1.3M
20260420T12Z_MSC_GDPS_RelativeVorticity_IsbL-0500_LatLon0.15_PT129H.grib2 2026-04-20 16:31 1.4M
20260420T12Z_MSC_GDPS_RelativeVorticity_IsbL-0700_LatLon0.15_PT129H.grib2 2026-04-20 16:31 1.6M
20260420T12Z_MSC_GDPS_RelativeVorticity_IsbL-0850_LatLon0.15_PT129H.grib2 2026-04-20 16:31 2.0M
20260420T12Z_MSC_GDPS_Runoff-Accum_Sfc_LatLon0.15_PT129H.grib2 2026-04-20 16:31 131K
20260420T12Z_MSC_GDPS_SensibleHeatNetFlux_Sfc_LatLon0.15_PT129H.grib2 2026-04-20 16:31 448K
20260420T12Z_MSC_GDPS_ShowalterIndex_IsbL-0500_LatLon0.15_PT129H.grib2 2026-04-20 16:31 6.2M
20260420T12Z_MSC_GDPS_Snow-Accum1h_Sfc_LatLon0.15_PT129H.grib2 2026-04-20 16:31 1.3M
20260420T12Z_MSC_GDPS_Snow-Accum3h_Sfc_LatLon0.15_PT129H.grib2 2026-04-20 16:31 1.4M
20260420T12Z_MSC_GDPS_Snow-Accum_Sfc_LatLon0.15_PT129H.grib2 2026-04-20 16:31 2.0M
20260420T12Z_MSC_GDPS_SnowDensity_Sfc_LatLon0.15_PT129H.grib2 2026-04-20 16:31 270K
20260420T12Z_MSC_GDPS_SnowDepth_Sfc_LatLon0.15_PT129H.grib2 2026-04-20 16:31 1.8M
20260420T12Z_MSC_GDPS_SoilTemp_DBS-0to10cm_LatLon0.15_PT129H.grib2 2026-04-20 16:31 514K
20260420T12Z_MSC_GDPS_SoilTemp_Sfc_LatLon0.15_PT129H.grib2 2026-04-20 16:31 585K
20260420T12Z_MSC_GDPS_SoilVolumetricIceContent_Sfc_LatLon0.15_PT129H.grib2 2026-04-20 16:31 215K
20260420T12Z_MSC_GDPS_SoilVolumetricWaterContent_DBS-0to10cm_LatLon0.15_PT129H.grib2 2026-04-20 16:31 563K
20260420T12Z_MSC_GDPS_SoilVolumetricWaterContent_DBS-0to1cm_LatLon0.15_PT129H.grib2 2026-04-20 16:31 651K
20260420T12Z_MSC_GDPS_SpecificHumidity_AGL-120m_LatLon0.15_PT129H.grib2 2026-04-20 16:31 1.1M
20260420T12Z_MSC_GDPS_SpecificHumidity_AGL-2m_LatLon0.15_PT129H.grib2 2026-04-20 16:31 1.2M
20260420T12Z_MSC_GDPS_SpecificHumidity_AGL-40m_LatLon0.15_PT129H.grib2 2026-04-20 16:31 1.1M
20260420T12Z_MSC_GDPS_SpecificHumidity_AGL-80m_LatLon0.15_PT129H.grib2 2026-04-20 16:31 1.1M
20260420T12Z_MSC_GDPS_SpecificHumidity_IsbL-0001_LatLon0.15_PT129H.grib2 2026-04-20 16:31 1.2M
20260420T12Z_MSC_GDPS_SpecificHumidity_IsbL-0005_LatLon0.15_PT129H.grib2 2026-04-20 16:31 1.3M
20260420T12Z_MSC_GDPS_SpecificHumidity_IsbL-0010_LatLon0.15_PT129H.grib2 2026-04-20 16:31 1.2M
20260420T12Z_MSC_GDPS_SpecificHumidity_IsbL-0020_LatLon0.15_PT129H.grib2 2026-04-20 16:31 1.3M
20260420T12Z_MSC_GDPS_SpecificHumidity_IsbL-0030_LatLon0.15_PT129H.grib2 2026-04-20 16:31 1.5M
20260420T12Z_MSC_GDPS_SpecificHumidity_IsbL-0050_LatLon0.15_PT129H.grib2 2026-04-20 16:31 1.3M
20260420T12Z_MSC_GDPS_SpecificHumidity_IsbL-0100_LatLon0.15_PT129H.grib2 2026-04-20 16:31 1.3M
20260420T12Z_MSC_GDPS_SpecificHumidity_IsbL-0150_LatLon0.15_PT129H.grib2 2026-04-20 16:31 1.2M
20260420T12Z_MSC_GDPS_SpecificHumidity_IsbL-0175_LatLon0.15_PT129H.grib2 2026-04-20 16:31 1.3M
20260420T12Z_MSC_GDPS_SpecificHumidity_IsbL-0200_LatLon0.15_PT129H.grib2 2026-04-20 16:31 1.3M
20260420T12Z_MSC_GDPS_SpecificHumidity_IsbL-0225_LatLon0.15_PT129H.grib2 2026-04-20 16:31 1.3M
20260420T12Z_MSC_GDPS_SpecificHumidity_IsbL-0250_LatLon0.15_PT129H.grib2 2026-04-20 16:31 1.4M
20260420T12Z_MSC_GDPS_SpecificHumidity_IsbL-0275_LatLon0.15_PT129H.grib2 2026-04-20 16:31 1.3M
20260420T12Z_MSC_GDPS_SpecificHumidity_IsbL-0300_LatLon0.15_PT129H.grib2 2026-04-20 16:31 1.2M
20260420T12Z_MSC_GDPS_SpecificHumidity_IsbL-0350_LatLon0.15_PT129H.grib2 2026-04-20 16:31 1.2M
20260420T12Z_MSC_GDPS_SpecificHumidity_IsbL-0400_LatLon0.15_PT129H.grib2 2026-04-20 16:31 1.5M
20260420T12Z_MSC_GDPS_SpecificHumidity_IsbL-0450_LatLon0.15_PT129H.grib2 2026-04-20 16:31 1.6M
20260420T12Z_MSC_GDPS_SpecificHumidity_IsbL-0500_LatLon0.15_PT129H.grib2 2026-04-20 16:31 1.4M
20260420T12Z_MSC_GDPS_SpecificHumidity_IsbL-0550_LatLon0.15_PT129H.grib2 2026-04-20 16:31 1.6M
20260420T12Z_MSC_GDPS_SpecificHumidity_IsbL-0600_LatLon0.15_PT129H.grib2 2026-04-20 16:31 1.7M
20260420T12Z_MSC_GDPS_SpecificHumidity_IsbL-0650_LatLon0.15_PT129H.grib2 2026-04-20 16:31 1.5M
20260420T12Z_MSC_GDPS_SpecificHumidity_IsbL-0700_LatLon0.15_PT129H.grib2 2026-04-20 16:31 1.6M
20260420T12Z_MSC_GDPS_SpecificHumidity_IsbL-0750_LatLon0.15_PT129H.grib2 2026-04-20 16:31 1.7M
20260420T12Z_MSC_GDPS_SpecificHumidity_IsbL-0800_LatLon0.15_PT129H.grib2 2026-04-20 16:31 1.9M
20260420T12Z_MSC_GDPS_SpecificHumidity_IsbL-0850_LatLon0.15_PT129H.grib2 2026-04-20 16:31 1.9M
20260420T12Z_MSC_GDPS_SpecificHumidity_IsbL-0875_LatLon0.15_PT129H.grib2 2026-04-20 16:31 1.9M
20260420T12Z_MSC_GDPS_SpecificHumidity_IsbL-0900_LatLon0.15_PT129H.grib2 2026-04-20 16:31 1.9M
20260420T12Z_MSC_GDPS_SpecificHumidity_IsbL-0925_LatLon0.15_PT129H.grib2 2026-04-20 16:31 1.9M
20260420T12Z_MSC_GDPS_SpecificHumidity_IsbL-0950_LatLon0.15_PT129H.grib2 2026-04-20 16:31 1.6M
20260420T12Z_MSC_GDPS_SpecificHumidity_IsbL-0970_LatLon0.15_PT129H.grib2 2026-04-20 16:31 1.5M
20260420T12Z_MSC_GDPS_SpecificHumidity_IsbL-0985_LatLon0.15_PT129H.grib2 2026-04-20 16:31 1.5M
20260420T12Z_MSC_GDPS_SpecificHumidity_IsbL-1000_LatLon0.15_PT129H.grib2 2026-04-20 16:31 1.5M
20260420T12Z_MSC_GDPS_SpecificHumidity_IsbL-1015_LatLon0.15_PT129H.grib2 2026-04-20 16:31 1.5M
20260420T12Z_MSC_GDPS_SpecificHumidity_Sfc_LatLon0.15_PT129H.grib2 2026-04-20 16:31 664K
20260420T12Z_MSC_GDPS_Thickness_IsbL-0850to0700_LatLon0.15_PT129H.grib2 2026-04-20 16:31 463K
20260420T12Z_MSC_GDPS_Thickness_IsbL-1000to0500_LatLon0.15_PT129H.grib2 2026-04-20 16:31 368K
20260420T12Z_MSC_GDPS_Thickness_IsbL-1000to0850_LatLon0.15_PT129H.grib2 2026-04-20 16:31 487K
20260420T12Z_MSC_GDPS_TotalCloudCover_Sfc_LatLon0.15_PT129H.grib2 2026-04-20 16:31 849K
20260420T12Z_MSC_GDPS_TotalTotalsIndex_Sfc_LatLon0.15_PT129H.grib2 2026-04-20 16:31 6.2M
20260420T12Z_MSC_GDPS_UVIndex-ClearSky_Sfc_LatLon0.15_PT129H.grib2 2026-04-20 17:06 1.0M
20260420T12Z_MSC_GDPS_UVIndex_Sfc_LatLon0.15_PT129H.grib2 2026-04-20 17:06 1.5M
20260420T12Z_MSC_GDPS_UpwardLongwaveRadiationFlux_NTAtm_LatLon0.15_PT129H.grib2 2026-04-20 16:31 844K
20260420T12Z_MSC_GDPS_VerticalVelocity_IsbL-0200_LatLon0.15_PT129H.grib2 2026-04-20 16:31 939K
20260420T12Z_MSC_GDPS_VerticalVelocity_IsbL-0250_LatLon0.15_PT129H.grib2 2026-04-20 16:31 1.0M
20260420T12Z_MSC_GDPS_VerticalVelocity_IsbL-0500_LatLon0.15_PT129H.grib2 2026-04-20 16:31 1.3M
20260420T12Z_MSC_GDPS_VerticalVelocity_IsbL-0600_LatLon0.15_PT129H.grib2 2026-04-20 16:31 1.3M
20260420T12Z_MSC_GDPS_VerticalVelocity_IsbL-0700_LatLon0.15_PT129H.grib2 2026-04-20 16:31 1.4M
20260420T12Z_MSC_GDPS_VerticalVelocity_IsbL-0850_LatLon0.15_PT129H.grib2 2026-04-20 16:31 1.6M
20260420T12Z_MSC_GDPS_WindChill_Sfc_LatLon0.15_PT129H.grib2 2026-04-20 16:31 5.3M
20260420T12Z_MSC_GDPS_WindDir_AGL-10m_LatLon0.15_PT129H.grib2 2026-04-20 16:31 1.4M
20260420T12Z_MSC_GDPS_WindDir_AGL-120m_LatLon0.15_PT129H.grib2 2026-04-20 16:31 1.4M
20260420T12Z_MSC_GDPS_WindDir_AGL-40m_LatLon0.15_PT129H.grib2 2026-04-20 16:31 1.4M
20260420T12Z_MSC_GDPS_WindDir_AGL-80m_LatLon0.15_PT129H.grib2 2026-04-20 16:31 1.4M
20260420T12Z_MSC_GDPS_WindDir_IsbL-0001_LatLon0.15_PT129H.grib2 2026-04-20 16:31 666K
20260420T12Z_MSC_GDPS_WindDir_IsbL-0005_LatLon0.15_PT129H.grib2 2026-04-20 16:31 811K
20260420T12Z_MSC_GDPS_WindDir_IsbL-0010_LatLon0.15_PT129H.grib2 2026-04-20 16:31 853K
20260420T12Z_MSC_GDPS_WindDir_IsbL-0020_LatLon0.15_PT129H.grib2 2026-04-20 16:31 962K
20260420T12Z_MSC_GDPS_WindDir_IsbL-0030_LatLon0.15_PT129H.grib2 2026-04-20 16:31 921K
20260420T12Z_MSC_GDPS_WindDir_IsbL-0050_LatLon0.15_PT129H.grib2 2026-04-20 16:31 963K
20260420T12Z_MSC_GDPS_WindDir_IsbL-0100_LatLon0.15_PT129H.grib2 2026-04-20 16:31 1.0M
20260420T12Z_MSC_GDPS_WindDir_IsbL-0150_LatLon0.15_PT129H.grib2 2026-04-20 16:31 1.0M
20260420T12Z_MSC_GDPS_WindDir_IsbL-0175_LatLon0.15_PT129H.grib2 2026-04-20 16:31 1.1M
20260420T12Z_MSC_GDPS_WindDir_IsbL-0200_LatLon0.15_PT129H.grib2 2026-04-20 16:31 1.1M
20260420T12Z_MSC_GDPS_WindDir_IsbL-0225_LatLon0.15_PT129H.grib2 2026-04-20 16:31 1.1M
20260420T12Z_MSC_GDPS_WindDir_IsbL-0250_LatLon0.15_PT129H.grib2 2026-04-20 16:31 1.1M
20260420T12Z_MSC_GDPS_WindDir_IsbL-0275_LatLon0.15_PT129H.grib2 2026-04-20 16:31 1.2M
20260420T12Z_MSC_GDPS_WindDir_IsbL-0300_LatLon0.15_PT129H.grib2 2026-04-20 16:31 1.2M
20260420T12Z_MSC_GDPS_WindDir_IsbL-0350_LatLon0.15_PT129H.grib2 2026-04-20 16:31 1.2M
20260420T12Z_MSC_GDPS_WindDir_IsbL-0400_LatLon0.15_PT129H.grib2 2026-04-20 16:31 1.3M
20260420T12Z_MSC_GDPS_WindDir_IsbL-0450_LatLon0.15_PT129H.grib2 2026-04-20 16:31 1.3M
20260420T12Z_MSC_GDPS_WindDir_IsbL-0500_LatLon0.15_PT129H.grib2 2026-04-20 16:31 1.4M
20260420T12Z_MSC_GDPS_WindDir_IsbL-0550_LatLon0.15_PT129H.grib2 2026-04-20 16:31 1.4M
20260420T12Z_MSC_GDPS_WindDir_IsbL-0600_LatLon0.15_PT129H.grib2 2026-04-20 16:31 1.5M
20260420T12Z_MSC_GDPS_WindDir_IsbL-0650_LatLon0.15_PT129H.grib2 2026-04-20 16:31 1.6M
20260420T12Z_MSC_GDPS_WindDir_IsbL-0700_LatLon0.15_PT129H.grib2 2026-04-20 16:31 1.6M
20260420T12Z_MSC_GDPS_WindDir_IsbL-0750_LatLon0.15_PT129H.grib2 2026-04-20 16:31 1.7M
20260420T12Z_MSC_GDPS_WindDir_IsbL-0800_LatLon0.15_PT129H.grib2 2026-04-20 16:31 1.9M
20260420T12Z_MSC_GDPS_WindDir_IsbL-0850_LatLon0.15_PT129H.grib2 2026-04-20 16:31 2.0M
20260420T12Z_MSC_GDPS_WindDir_IsbL-0875_LatLon0.15_PT129H.grib2 2026-04-20 16:31 2.0M
20260420T12Z_MSC_GDPS_WindDir_IsbL-0900_LatLon0.15_PT129H.grib2 2026-04-20 16:31 2.0M
20260420T12Z_MSC_GDPS_WindDir_IsbL-0925_LatLon0.15_PT129H.grib2 2026-04-20 16:31 2.0M
20260420T12Z_MSC_GDPS_WindDir_IsbL-0950_LatLon0.15_PT129H.grib2 2026-04-20 16:31 2.0M
20260420T12Z_MSC_GDPS_WindDir_IsbL-0970_LatLon0.15_PT129H.grib2 2026-04-20 16:31 2.0M
20260420T12Z_MSC_GDPS_WindDir_IsbL-0985_LatLon0.15_PT129H.grib2 2026-04-20 16:31 2.1M
20260420T12Z_MSC_GDPS_WindDir_IsbL-1000_LatLon0.15_PT129H.grib2 2026-04-20 16:31 2.1M
20260420T12Z_MSC_GDPS_WindDir_IsbL-1015_LatLon0.15_PT129H.grib2 2026-04-20 16:31 2.1M
20260420T12Z_MSC_GDPS_WindGust-Max_AGL-10m_LatLon0.15_PT129H.grib2 2026-04-20 16:31 2.2M
20260420T12Z_MSC_GDPS_WindGust-Min_AGL-10m_LatLon0.15_PT129H.grib2 2026-04-20 16:31 2.2M
20260420T12Z_MSC_GDPS_WindGust_AGL-10m_LatLon0.15_PT129H.grib2 2026-04-20 16:31 2.2M
20260420T12Z_MSC_GDPS_WindSpeed_AGL-10m_LatLon0.15_PT129H.grib2 2026-04-20 16:31 1.1M
20260420T12Z_MSC_GDPS_WindSpeed_AGL-120m_LatLon0.15_PT129H.grib2 2026-04-20 16:31 1.3M
20260420T12Z_MSC_GDPS_WindSpeed_AGL-40m_LatLon0.15_PT129H.grib2 2026-04-20 16:31 1.2M
20260420T12Z_MSC_GDPS_WindSpeed_AGL-80m_LatLon0.15_PT129H.grib2 2026-04-20 16:31 1.3M
20260420T12Z_MSC_GDPS_WindSpeed_IsbL-0001_LatLon0.15_PT129H.grib2 2026-04-20 16:31 636K
20260420T12Z_MSC_GDPS_WindSpeed_IsbL-0005_LatLon0.15_PT129H.grib2 2026-04-20 16:31 604K
20260420T12Z_MSC_GDPS_WindSpeed_IsbL-0010_LatLon0.15_PT129H.grib2 2026-04-20 16:31 623K
20260420T12Z_MSC_GDPS_WindSpeed_IsbL-0020_LatLon0.15_PT129H.grib2 2026-04-20 16:31 852K
20260420T12Z_MSC_GDPS_WindSpeed_IsbL-0030_LatLon0.15_PT129H.grib2 2026-04-20 16:31 847K
20260420T12Z_MSC_GDPS_WindSpeed_IsbL-0050_LatLon0.15_PT129H.grib2 2026-04-20 16:31 1.0M
20260420T12Z_MSC_GDPS_WindSpeed_IsbL-0100_LatLon0.15_PT129H.grib2 2026-04-20 16:31 1.1M
20260420T12Z_MSC_GDPS_WindSpeed_IsbL-0150_LatLon0.15_PT129H.grib2 2026-04-20 16:31 1.0M
20260420T12Z_MSC_GDPS_WindSpeed_IsbL-0175_LatLon0.15_PT129H.grib2 2026-04-20 16:31 1.0M
20260420T12Z_MSC_GDPS_WindSpeed_IsbL-0200_LatLon0.15_PT129H.grib2 2026-04-20 16:31 1.1M
20260420T12Z_MSC_GDPS_WindSpeed_IsbL-0225_LatLon0.15_PT129H.grib2 2026-04-20 16:31 1.1M
20260420T12Z_MSC_GDPS_WindSpeed_IsbL-0250_LatLon0.15_PT129H.grib2 2026-04-20 16:31 1.1M
20260420T12Z_MSC_GDPS_WindSpeed_IsbL-0275_LatLon0.15_PT129H.grib2 2026-04-20 16:31 1.1M
20260420T12Z_MSC_GDPS_WindSpeed_IsbL-0300_LatLon0.15_PT129H.grib2 2026-04-20 16:31 1.1M
20260420T12Z_MSC_GDPS_WindSpeed_IsbL-0350_LatLon0.15_PT129H.grib2 2026-04-20 16:31 1.1M
20260420T12Z_MSC_GDPS_WindSpeed_IsbL-0400_LatLon0.15_PT129H.grib2 2026-04-20 16:31 1.1M
20260420T12Z_MSC_GDPS_WindSpeed_IsbL-0450_LatLon0.15_PT129H.grib2 2026-04-20 16:31 1.1M
20260420T12Z_MSC_GDPS_WindSpeed_IsbL-0500_LatLon0.15_PT129H.grib2 2026-04-20 16:31 1.1M
20260420T12Z_MSC_GDPS_WindSpeed_IsbL-0550_LatLon0.15_PT129H.grib2 2026-04-20 16:31 1.1M
20260420T12Z_MSC_GDPS_WindSpeed_IsbL-0600_LatLon0.15_PT129H.grib2 2026-04-20 16:31 1.1M
20260420T12Z_MSC_GDPS_WindSpeed_IsbL-0650_LatLon0.15_PT129H.grib2 2026-04-20 16:31 1.4M
20260420T12Z_MSC_GDPS_WindSpeed_IsbL-0700_LatLon0.15_PT129H.grib2 2026-04-20 16:31 1.5M
20260420T12Z_MSC_GDPS_WindSpeed_IsbL-0750_LatLon0.15_PT129H.grib2 2026-04-20 16:31 1.6M
20260420T12Z_MSC_GDPS_WindSpeed_IsbL-0800_LatLon0.15_PT129H.grib2 2026-04-20 16:31 1.7M
20260420T12Z_MSC_GDPS_WindSpeed_IsbL-0850_LatLon0.15_PT129H.grib2 2026-04-20 16:31 1.8M
20260420T12Z_MSC_GDPS_WindSpeed_IsbL-0875_LatLon0.15_PT129H.grib2 2026-04-20 16:31 1.8M
20260420T12Z_MSC_GDPS_WindSpeed_IsbL-0900_LatLon0.15_PT129H.grib2 2026-04-20 16:31 1.9M
20260420T12Z_MSC_GDPS_WindSpeed_IsbL-0925_LatLon0.15_PT129H.grib2 2026-04-20 16:31 1.9M
20260420T12Z_MSC_GDPS_WindSpeed_IsbL-0950_LatLon0.15_PT129H.grib2 2026-04-20 16:31 1.9M
20260420T12Z_MSC_GDPS_WindSpeed_IsbL-0970_LatLon0.15_PT129H.grib2 2026-04-20 16:31 1.9M
20260420T12Z_MSC_GDPS_WindSpeed_IsbL-0985_LatLon0.15_PT129H.grib2 2026-04-20 16:31 1.9M
20260420T12Z_MSC_GDPS_WindSpeed_IsbL-1000_LatLon0.15_PT129H.grib2 2026-04-20 16:31 1.9M
20260420T12Z_MSC_GDPS_WindSpeed_IsbL-1015_LatLon0.15_PT129H.grib2 2026-04-20 16:31 1.8M
20260420T12Z_MSC_GDPS_WindU_AGL-10m_LatLon0.15_PT129H.grib2 2026-04-20 16:31 1.3M
20260420T12Z_MSC_GDPS_WindU_AGL-120m_LatLon0.15_PT129H.grib2 2026-04-20 16:31 1.0M
20260420T12Z_MSC_GDPS_WindU_AGL-40m_LatLon0.15_PT129H.grib2 2026-04-20 16:31 1.0M
20260420T12Z_MSC_GDPS_WindU_AGL-80m_LatLon0.15_PT129H.grib2 2026-04-20 16:31 1.0M
20260420T12Z_MSC_GDPS_WindU_IsbL-0001_LatLon0.15_PT129H.grib2 2026-04-20 16:31 639K
20260420T12Z_MSC_GDPS_WindU_IsbL-0005_LatLon0.15_PT129H.grib2 2026-04-20 16:31 682K
20260420T12Z_MSC_GDPS_WindU_IsbL-0010_LatLon0.15_PT129H.grib2 2026-04-20 16:31 697K
20260420T12Z_MSC_GDPS_WindU_IsbL-0020_LatLon0.15_PT129H.grib2 2026-04-20 16:31 728K
20260420T12Z_MSC_GDPS_WindU_IsbL-0030_LatLon0.15_PT129H.grib2 2026-04-20 16:31 730K
20260420T12Z_MSC_GDPS_WindU_IsbL-0050_LatLon0.15_PT129H.grib2 2026-04-20 16:31 693K
20260420T12Z_MSC_GDPS_WindU_IsbL-0100_LatLon0.15_PT129H.grib2 2026-04-20 16:31 905K
20260420T12Z_MSC_GDPS_WindU_IsbL-0150_LatLon0.15_PT129H.grib2 2026-04-20 16:31 1.0M
20260420T12Z_MSC_GDPS_WindU_IsbL-0175_LatLon0.15_PT129H.grib2 2026-04-20 16:31 1.0M
20260420T12Z_MSC_GDPS_WindU_IsbL-0200_LatLon0.15_PT129H.grib2 2026-04-20 16:31 1.0M
20260420T12Z_MSC_GDPS_WindU_IsbL-0225_LatLon0.15_PT129H.grib2 2026-04-20 16:31 851K
20260420T12Z_MSC_GDPS_WindU_IsbL-0250_LatLon0.15_PT129H.grib2 2026-04-20 16:31 853K
20260420T12Z_MSC_GDPS_WindU_IsbL-0275_LatLon0.15_PT129H.grib2 2026-04-20 16:31 880K
20260420T12Z_MSC_GDPS_WindU_IsbL-0300_LatLon0.15_PT129H.grib2 2026-04-20 16:31 872K
20260420T12Z_MSC_GDPS_WindU_IsbL-0350_LatLon0.15_PT129H.grib2 2026-04-20 16:31 887K
20260420T12Z_MSC_GDPS_WindU_IsbL-0400_LatLon0.15_PT129H.grib2 2026-04-20 16:31 888K
20260420T12Z_MSC_GDPS_WindU_IsbL-0450_LatLon0.15_PT129H.grib2 2026-04-20 16:31 1.1M
20260420T12Z_MSC_GDPS_WindU_IsbL-0500_LatLon0.15_PT129H.grib2 2026-04-20 16:31 1.1M
20260420T12Z_MSC_GDPS_WindU_IsbL-0550_LatLon0.15_PT129H.grib2 2026-04-20 16:31 1.1M
20260420T12Z_MSC_GDPS_WindU_IsbL-0600_LatLon0.15_PT129H.grib2 2026-04-20 16:31 1.1M
20260420T12Z_MSC_GDPS_WindU_IsbL-0650_LatLon0.15_PT129H.grib2 2026-04-20 16:31 1.2M
20260420T12Z_MSC_GDPS_WindU_IsbL-0700_LatLon0.15_PT129H.grib2 2026-04-20 16:31 1.2M
20260420T12Z_MSC_GDPS_WindU_IsbL-0750_LatLon0.15_PT129H.grib2 2026-04-20 16:31 1.3M
20260420T12Z_MSC_GDPS_WindU_IsbL-0800_LatLon0.15_PT129H.grib2 2026-04-20 16:31 1.4M
20260420T12Z_MSC_GDPS_WindU_IsbL-0850_LatLon0.15_PT129H.grib2 2026-04-20 16:31 1.4M
20260420T12Z_MSC_GDPS_WindU_IsbL-0875_LatLon0.15_PT129H.grib2 2026-04-20 16:31 1.5M
20260420T12Z_MSC_GDPS_WindU_IsbL-0900_LatLon0.15_PT129H.grib2 2026-04-20 16:31 1.5M
20260420T12Z_MSC_GDPS_WindU_IsbL-0925_LatLon0.15_PT129H.grib2 2026-04-20 16:31 1.5M
20260420T12Z_MSC_GDPS_WindU_IsbL-0950_LatLon0.15_PT129H.grib2 2026-04-20 16:31 1.5M
20260420T12Z_MSC_GDPS_WindU_IsbL-0970_LatLon0.15_PT129H.grib2 2026-04-20 16:31 1.4M
20260420T12Z_MSC_GDPS_WindU_IsbL-0985_LatLon0.15_PT129H.grib2 2026-04-20 16:31 1.4M
20260420T12Z_MSC_GDPS_WindU_IsbL-1000_LatLon0.15_PT129H.grib2 2026-04-20 16:31 1.4M
20260420T12Z_MSC_GDPS_WindU_IsbL-1015_LatLon0.15_PT129H.grib2 2026-04-20 16:31 1.4M
20260420T12Z_MSC_GDPS_WindV_AGL-10m_LatLon0.15_PT129H.grib2 2026-04-20 16:31 1.6M
20260420T12Z_MSC_GDPS_WindV_AGL-120m_LatLon0.15_PT129H.grib2 2026-04-20 16:31 1.0M
20260420T12Z_MSC_GDPS_WindV_AGL-40m_LatLon0.15_PT129H.grib2 2026-04-20 16:31 1.2M
20260420T12Z_MSC_GDPS_WindV_AGL-80m_LatLon0.15_PT129H.grib2 2026-04-20 16:31 1.0M
20260420T12Z_MSC_GDPS_WindV_IsbL-0001_LatLon0.15_PT129H.grib2 2026-04-20 16:31 699K
20260420T12Z_MSC_GDPS_WindV_IsbL-0005_LatLon0.15_PT129H.grib2 2026-04-20 16:31 776K
20260420T12Z_MSC_GDPS_WindV_IsbL-0010_LatLon0.15_PT129H.grib2 2026-04-20 16:31 802K
20260420T12Z_MSC_GDPS_WindV_IsbL-0020_LatLon0.15_PT129H.grib2 2026-04-20 16:31 929K
20260420T12Z_MSC_GDPS_WindV_IsbL-0030_LatLon0.15_PT129H.grib2 2026-04-20 16:31 840K
20260420T12Z_MSC_GDPS_WindV_IsbL-0050_LatLon0.15_PT129H.grib2 2026-04-20 16:31 899K
20260420T12Z_MSC_GDPS_WindV_IsbL-0100_LatLon0.15_PT129H.grib2 2026-04-20 16:31 1.0M
20260420T12Z_MSC_GDPS_WindV_IsbL-0150_LatLon0.15_PT129H.grib2 2026-04-20 16:31 1.0M
20260420T12Z_MSC_GDPS_WindV_IsbL-0175_LatLon0.15_PT129H.grib2 2026-04-20 16:31 1.0M
20260420T12Z_MSC_GDPS_WindV_IsbL-0200_LatLon0.15_PT129H.grib2 2026-04-20 16:31 842K
20260420T12Z_MSC_GDPS_WindV_IsbL-0225_LatLon0.15_PT129H.grib2 2026-04-20 16:31 851K
20260420T12Z_MSC_GDPS_WindV_IsbL-0250_LatLon0.15_PT129H.grib2 2026-04-20 16:31 849K
20260420T12Z_MSC_GDPS_WindV_IsbL-0275_LatLon0.15_PT129H.grib2 2026-04-20 16:31 875K
20260420T12Z_MSC_GDPS_WindV_IsbL-0300_LatLon0.15_PT129H.grib2 2026-04-20 16:31 923K
20260420T12Z_MSC_GDPS_WindV_IsbL-0350_LatLon0.15_PT129H.grib2 2026-04-20 16:31 878K
20260420T12Z_MSC_GDPS_WindV_IsbL-0400_LatLon0.15_PT129H.grib2 2026-04-20 16:31 878K
20260420T12Z_MSC_GDPS_WindV_IsbL-0450_LatLon0.15_PT129H.grib2 2026-04-20 16:31 877K
20260420T12Z_MSC_GDPS_WindV_IsbL-0500_LatLon0.15_PT129H.grib2 2026-04-20 16:31 1.1M
20260420T12Z_MSC_GDPS_WindV_IsbL-0550_LatLon0.15_PT129H.grib2 2026-04-20 16:31 1.1M
20260420T12Z_MSC_GDPS_WindV_IsbL-0600_LatLon0.15_PT129H.grib2 2026-04-20 16:31 1.1M
20260420T12Z_MSC_GDPS_WindV_IsbL-0650_LatLon0.15_PT129H.grib2 2026-04-20 16:31 1.1M
20260420T12Z_MSC_GDPS_WindV_IsbL-0700_LatLon0.15_PT129H.grib2 2026-04-20 16:31 1.2M
20260420T12Z_MSC_GDPS_WindV_IsbL-0750_LatLon0.15_PT129H.grib2 2026-04-20 16:31 1.2M
20260420T12Z_MSC_GDPS_WindV_IsbL-0800_LatLon0.15_PT129H.grib2 2026-04-20 16:31 1.3M
20260420T12Z_MSC_GDPS_WindV_IsbL-0850_LatLon0.15_PT129H.grib2 2026-04-20 16:31 1.4M
20260420T12Z_MSC_GDPS_WindV_IsbL-0875_LatLon0.15_PT129H.grib2 2026-04-20 16:31 1.4M
20260420T12Z_MSC_GDPS_WindV_IsbL-0900_LatLon0.15_PT129H.grib2 2026-04-20 16:31 1.4M
20260420T12Z_MSC_GDPS_WindV_IsbL-0925_LatLon0.15_PT129H.grib2 2026-04-20 16:31 1.4M
20260420T12Z_MSC_GDPS_WindV_IsbL-0950_LatLon0.15_PT129H.grib2 2026-04-20 16:31 1.4M
20260420T12Z_MSC_GDPS_WindV_IsbL-0970_LatLon0.15_PT129H.grib2 2026-04-20 16:31 1.7M
20260420T12Z_MSC_GDPS_WindV_IsbL-0985_LatLon0.15_PT129H.grib2 2026-04-20 16:31 1.7M
20260420T12Z_MSC_GDPS_WindV_IsbL-1000_LatLon0.15_PT129H.grib2 2026-04-20 16:31 1.7M
20260420T12Z_MSC_GDPS_WindV_IsbL-1015_LatLon0.15_PT129H.grib2 2026-04-20 16:31 1.7M